Glendale Luke AFB, AZ

7:59 AM MST on April 25, 2017 (GMT -0700)
Luke Air Force Base

Weather History for KLUF - April, 2014

Change the Weather History Date:

Wednesday, April 2, 2014

  Actual Average Record
Temperature  
Mean Temperature 58 °F -  
Max Temperature 66 °F 80 °F 99 °F (1943)
Min Temperature 51 °F 46 °F 36 °F (1949)
Degree Days  
Heating Degree Days 6    
Growing Degree Days 8 (Base 50)    
Moisture  
Dew Point 31 °F    
Average Humidity 33    
Maximum Humidity 44    
Minimum Humidity 22    
Precipitation  
Precipitation 0.00 in - - ()
Sea Level Pressure  
Sea Level Pressure 29.85 in    
Wind  
Wind Speed 13 mph (SW)    
Max Wind Speed 37 mph    
Max Gust Speed 50 mph    
Visibility 10 miles    
Events Rain    
Averages and records for this station are not official NWS values.
T = Trace of Precipitation, MM = Missing Value Source: NWS Daily Summary

Daily Weather History Graph

Daily Weather History Graph

Search for Another Location

Airport or City:

Trip Planner

Search our weather history database for the weather conditions in past years. The results will help you decide how hot, cold, wet, or windy it might be!

Date:

Astronomy

Apr. 02, 2014 Rise Set
Actual Time 6:15 AM MST 6:50 PM MST
Civil Twilight 5:50 AM MST 7:15 PM MST
Nautical Twilight 5:21 AM MST 7:45 PM MST
Astronomical Twilight 4:51 AM MST 8:15 PM MST
Moon 8:10 AM MST (4/2) 10:08 PM MST (4/2)
Length of Visible Light 13h 25m
Length of Day
12h 35m
Waxing Crescent, 11% of the Moon is Illuminated
Apr 2
Waxing Crescent
Apr 7
First Quarter
Apr 15
Full
Apr 22
Last Quarter
Apr 28
New

Hourly Weather History & Observations

Time (MST) Temp. Dew Point Humidity Pressure Visibility Wind Dir Wind Speed Gust Speed Precip Events Conditions
12:58 AM 59.7 °F 37.2 °F 43% 29.80 in 10.0 mi WSW 8.1 mph - N/A   Clear
1:58 AM 57.7 °F 34.5 °F 42% 29.81 in 10.0 mi SSW 9.2 mph - N/A   Clear
2:58 AM 56.3 °F 30.7 °F 38% 29.83 in 10.0 mi South 10.4 mph - N/A   Partly Cloudy
3:18 AM 55.4 °F 30.2 °F 38% 29.83 in 10.0 mi South 10.4 mph - N/A   Mostly Cloudy
3:58 AM 55.0 °F 29.1 °F 37% 29.81 in 10.0 mi SSW 11.5 mph - N/A   Overcast
4:55 AM 64.4 °F 30.2 °F 28% 29.88 in 10.0 mi SW 10.4 mph 23.0 mph N/A   Scattered Clouds
5:58 AM 51.8 °F 30.6 °F 44% 29.84 in 10.0 mi SSW 16.1 mph - N/A   Scattered Clouds
6:58 AM 51.6 °F 30.0 °F 44% 29.85 in 10.0 mi SW 12.7 mph - N/A   Scattered Clouds
7:58 AM 53.6 °F 30.4 °F 41% 29.88 in 10.0 mi SSW 15.0 mph - N/A   Scattered Clouds
8:58 AM 56.3 °F 30.7 °F 38% 29.89 in 10.0 mi SW 18.4 mph - N/A   Mostly Cloudy
9:58 AM 58.6 °F 31.3 °F 36% 29.90 in 10.0 mi SW 17.3 mph 23.0 mph N/A   Mostly Cloudy
10:58 AM 61.9 °F 31.5 °F 32% 29.90 in 10.0 mi SW 17.3 mph - N/A   Partly Cloudy
11:58 AM 64.4 °F 30.2 °F 28% 29.88 in 10.0 mi WSW 16.1 mph 24.2 mph N/A   Clear
12:59 PM 64.4 °F 30.2 °F 28% 29.87 in 10.0 mi SSW 12.7 mph 20.7 mph N/A   Clear
1:58 PM 66.0 °F 29.3 °F 25% 29.85 in 10.0 mi SW 15.0 mph 27.6 mph N/A   Scattered Clouds
2:26 PM 66.2 °F 28.4 °F 24% 29.85 in 10.0 mi SSW 10.4 mph 23.0 mph N/A   Mostly Cloudy
2:59 PM 64.4 °F 32.0 °F 30% 29.83 in 10.0 mi SSW 16.1 mph 19.6 mph 0.00 in   Mostly Cloudy
3:31 PM 66.2 °F 32.0 °F 28% 29.83 in 10.0 mi SW 18.4 mph 25.3 mph N/A   Partly Cloudy
3:58 PM 65.1 °F 34.5 °F 32% 29.83 in 10.0 mi SW 23.0 mph 28.8 mph 0.00 in   Mostly Cloudy
4:09 PM 64.4 °F 33.8 °F 32% 29.83 in 4.0 mi SW 31.1 mph 39.1 mph N/A   Haze
4:11 PM 64.4 °F 32.0 °F 30% 29.83 in 5.0 mi SSW 26.5 mph 49.5 mph N/A   Widespread Dust
4:19 PM 62.6 °F 32.0 °F 32% 29.83 in 5.0 mi South 20.7 mph 44.9 mph N/A   Haze
4:34 PM 62.6 °F 35.6 °F 37% 29.83 in 10.0 mi SSW 23.0 mph 31.1 mph N/A   Mostly Cloudy
4:37 PM 62.6 °F 33.8 °F 34% 29.84 in 10.0 mi SW 36.8 mph 47.2 mph N/A   Partly Cloudy
4:42 PM 62.6 °F 35.6 °F 37% 29.84 in 7.0 mi South 18.4 mph 47.2 mph N/A   Clear
4:43 PM 62.6 °F 39.2 °F 42% 29.83 in 10.0 mi South 20.7 mph 46.0 mph N/A   Mostly Cloudy
4:49 PM 62.6 °F 33.8 °F 34% 29.83 in 10.0 mi SSW 11.5 mph - N/A   Mostly Cloudy
4:58 PM 62.4 °F 33.3 °F 34% 29.84 in 10.0 mi SSW 9.2 mph - N/A   Mostly Cloudy
5:02 PM 62.6 °F 37.4 °F 39% 29.84 in 10.0 mi SSW 6.9 mph - N/A Rain Light Rain
5:13 PM 62.6 °F 37.4 °F 39% 29.83 in 10.0 mi South 4.6 mph - N/A   Partly Cloudy
5:58 PM 64.2 °F 23.9 °F 22% 29.83 in 10.0 mi SW 18.4 mph - 0.00 in   Scattered Clouds
6:17 PM 64.4 °F 26.6 °F 24% 29.84 in 10.0 mi SW 18.4 mph - N/A Rain Light Rain
6:26 PM 64.4 °F 26.6 °F 24% 29.83 in 10.0 mi SW 21.9 mph - N/A   Scattered Clouds
6:58 PM 62.4 °F 28.2 °F 27% 29.83 in 10.0 mi SW 13.8 mph - 0.00 in   Partly Cloudy
7:15 PM 60.8 °F 28.4 °F 29% 29.85 in 10.0 mi West 17.3 mph 26.5 mph N/A   Partly Cloudy
7:19 PM 60.8 °F 28.4 °F 29% 29.85 in 10.0 mi NW 21.9 mph 26.5 mph N/A   Partly Cloudy
7:20 PM 60.8 °F 32.0 °F 34% 29.85 in 10.0 mi NW 20.7 mph 26.5 mph N/A Rain Light Rain
7:30 PM 59.0 °F 32.0 °F 36% 29.86 in 10.0 mi North 3.5 mph - N/A   Scattered Clouds
7:58 PM 60.6 °F 27.3 °F 28% 29.86 in 10.0 mi SW 13.8 mph 33.4 mph 0.00 in   Partly Cloudy
7:59 PM 60.8 °F 26.6 °F 27% 29.87 in 10.0 mi SSW 12.7 mph 33.4 mph N/A   Partly Cloudy
8:58 PM 58.5 °F 29.5 °F 33% 29.89 in 10.0 mi NW 6.9 mph - N/A   Partly Cloudy
9:58 PM 57.0 °F 29.7 °F 35% 29.91 in 10.0 mi Variable 1.2 mph - N/A   Mostly Cloudy
10:48 PM 59.0 °F 28.4 °F 31% 29.92 in 10.0 mi SSE 3.5 mph - N/A   Mostly Cloudy
10:58 PM 58.5 °F 27.7 °F 31% 29.91 in 10.0 mi SSE 1.2 mph - N/A   Mostly Cloudy
11:08 PM 59.0 °F 28.4 °F 31% 29.93 in 10.0 mi South 3.5 mph - N/A   Scattered Clouds
11:58 PM 53.8 °F 30.7 °F 41% 29.92 in 10.0 mi Calm Calm - N/A   Clear